Weather in Molodezhnyj

Kazakhstan     50°43′33″N   73°31′44″E
temp.,
°C
wind,
m/s
gust,
m/s
humid.,
%
clouds,
%
prec.,
mm/h
press.,
hPa
HPBL,
m
28 october, thu
thu2800:00−2sw22374 0.0 103014
03:00−3sw22380 0.0 102912
06:00−3sw22383 0.0 103015
09:00−2sw34345 0.0 102995
12:00+3sw56255 0.0 1027494
15:00+6wsw67245 0.0 1025769
18:00+3sw483218 0.0 1026132
21:00+1sw5113658 0.0 1026222
29 october, fri
fri2900:00+1sw5133732 0.0 1025245
03:000sw6134098 0.0 1025277
06:000sw61441100 0.0 1025318
09:00+1sw71541100 0.0 1025440
12:00+5wsw9153538 0.0 1024820
15:00+7wsw10133241 0.0 10241096
18:00+5wsw81438100 0.0 1025597
21:00+4wsw71539100 0.0 1026734
30 october, sat
sat3000:00+3wsw71342100 0.0 1027589
03:00+2wsw61146100 0.0 1028510
06:00+1wsw51150100 0.0 1029473
09:00+1wsw51069100 0.0 1031494
12:00+2wsw7976100 0.0 1031693
15:00+2wsw787997 0.0 1030755
18:00+2wsw5878100 0.1 1030913
21:00+3wsw71067100 0.0 10291137
31 october, sun
sun3100:00+4wsw91258100 0.0 10271270
03:00+3sw91562100 0.0 10241046
06:00+3wsw111770100 0.0 10221007
09:00+1wsw111995100 0.6 1021975
12:00+2wsw101794100 1.2 1021858
15:00+2w91595100 0.4 1021828
18:00+3w71296100 0.7 1024780
21:00+3w5986100 0.1 1026642
1 november, mon
mon100:00+2nw369187 0.2 1027456
03:00+2w1492100 0.0 1028297
06:00+2wsw2596100 0.1 1028426
09:00+2sw4890100 0.1 1027399
12:00+4wsw6985100 0.1 1025777
15:00+4wsw71181100 0.1 1023905
18:00+4wsw71284100 0.1 1021736
21:00+5wsw71486100 0.0 1019863